Time,TemperatureF,DewpointF,PressureIn,WindDirection,WindDirectionDegrees,WindSpeedMPH,WindSpeedGustMPH,Humidity,HourlyPrecipIn,Conditions,Clouds,dailyrainin,SoftwareType,DateUTC
2013-02-11 00:13:00,44.1,43.6,30.01,ENE,67,1.7,-999.0,98,-99.99,,,0.00,Acu-Link.com,2013-02-11 05:13:00,
2013-02-11 00:28:00,44.4,43.9,30.00,NNW,337,1.7,-999.0,98,-99.99,,,0.00,Acu-Link.com,2013-02-11 05:28:00,
2013-02-11 00:43:00,44.6,44.1,30.00,WSW,247,2.2,-999.0,98,-99.99,,,0.00,Acu-Link.com,2013-02-11 05:43:00,
2013-02-11 00:58:00,44.8,44.3,29.98,South,180,1.1,-999.0,98,-99.99,,,0.00,Acu-Link.com,2013-02-11 05:58:00,
2013-02-11 01:14:00,45.1,44.6,29.98,SSW,202,2.2,-999.0,98,-99.99,,,0.00,Acu-Link.com,2013-02-11 06:14:00,
2013-02-11 01:29:00,45.3,44.8,29.96,South,180,2.7,-999.0,98,-99.99,,,0.00,Acu-Link.com,2013-02-11 06:29:00,
2013-02-11 01:44:00,45.9,45.4,29.96,South,180,2.2,-999.0,98,-99.99,,,0.00,Acu-Link.com,2013-02-11 06:44:00,
2013-02-11 02:00:00,46.0,45.5,29.96,East,90,2.7,-999.0,98,-99.99,,,0.00,Acu-Link.com,2013-02-11 07:00:00,
2013-02-11 02:15:00,46.4,45.9,29.97,ESE,112,1.7,-999.0,98,-99.99,,,0.00,Acu-Link.com,2013-02-11 07:15:00,
2013-02-11 02:30:00,46.8,46.3,29.96,SSW,202,2.7,-999.0,98,-99.99,,,0.00,Acu-Link.com,2013-02-11 07:30:00,
2013-02-11 02:46:00,47.1,46.6,29.95,North,0,2.2,-999.0,98,-99.99,,,0.00,Acu-Link.com,2013-02-11 07:46:00,
2013-02-11 03:01:00,47.5,47.0,29.95,NNW,337,0.0,-999.0,98,-99.99,,,0.00,Acu-Link.com,2013-02-11 08:01:00,
2013-02-11 03:16:00,47.7,47.2,29.95,SE,135,1.7,-999.0,98,-99.99,,,0.00,Acu-Link.com,2013-02-11 08:16:00,
2013-02-11 03:31:00,48.0,47.5,29.94,NW,315,2.7,-999.0,98,-99.99,,,0.00,Acu-Link.com,2013-02-11 08:31:00,
2013-02-11 03:47:00,48.2,47.7,29.92,NE,45,0.0,-999.0,98,-99.99,,,0.00,Acu-Link.com,2013-02-11 08:47:00,
2013-02-11 04:16:00,48.6,48.1,29.92,South,180,1.7,-999.0,98,-99.99,,,0.00,Acu-Link.com,2013-02-11 09:16:00,
2013-02-11 04:32:00,48.9,48.4,29.92,NE,45,0.0,-999.0,98,-99.99,,,0.00,Acu-Link.com,2013-02-11 09:32:00,
2013-02-11 04:47:00,49.1,48.6,29.91,West,270,0.0,-999.0,98,-99.99,,,0.00,Acu-Link.com,2013-02-11 09:47:00,
2013-02-11 05:02:00,50.0,49.5,29.91,SW,225,0.0,-999.0,98,-99.99,,,0.00,Acu-Link.com,2013-02-11 10:02:00,
2013-02-11 05:17:00,50.7,50.2,29.91,South,180,1.1,-999.0,98,-99.99,,,0.00,Acu-Link.com,2013-02-11 10:17:00,
2013-02-11 05:32:00,50.7,50.2,29.91,SE,135,1.1,-999.0,98,-99.99,,,0.00,Acu-Link.com,2013-02-11 10:32:00,
2013-02-11 05:47:00,50.9,50.4,29.91,ENE,67,0.0,-999.0,98,-99.99,,,0.00,Acu-Link.com,2013-02-11 10:47:00,
2013-02-11 06:02:00,50.9,50.4,29.91,NE,45,0.0,-999.0,98,-99.99,,,0.00,Acu-Link.com,2013-02-11 11:02:00,
2013-02-11 06:17:00,51.1,50.6,29.90,East,90,0.0,-999.0,98,-99.99,,,0.00,Acu-Link.com,2013-02-11 11:17:00,
2013-02-11 06:33:00,51.1,50.6,29.89,West,270,0.0,-999.0,98,-99.99,,,0.01,Acu-Link.com,2013-02-11 11:33:00,
2013-02-11 06:48:00,51.4,50.9,29.89,NNW,337,0.0,-999.0,98,-99.99,,,0.02,Acu-Link.com,2013-02-11 11:48:00,
2013-02-11 07:03:00,51.4,50.9,29.89,NE,45,1.1,-999.0,98,-99.99,,,0.02,Acu-Link.com,2013-02-11 12:03:00,
2013-02-11 07:19:00,51.6,51.1,29.89,North,0,0.0,-999.0,98,-99.99,,,0.03,Acu-Link.com,2013-02-11 12:19:00,
2013-02-11 07:34:00,52.0,51.5,29.89,ENE,67,1.1,-999.0,98,-99.99,,,0.04,Acu-Link.com,2013-02-11 12:34:00,
2013-02-11 07:50:00,52.5,52.0,29.89,NNE,22,2.2,-999.0,98,-99.99,,,0.04,Acu-Link.com,2013-02-11 12:50:00,
2013-02-11 08:05:00,53.8,53.2,29.88,SSE,157,1.7,-999.0,98,-99.99,,,0.05,Acu-Link.com,2013-02-11 13:05:00,
2013-02-11 08:20:00,55.0,54.4,29.87,NW,315,4.7,-999.0,98,-99.99,,,0.05,Acu-Link.com,2013-02-11 13:20:00,
2013-02-11 08:35:00,55.8,55.2,29.85,WSW,247,4.7,-999.0,98,-99.99,,,0.05,Acu-Link.com,2013-02-11 13:35:00,
2013-02-11 08:51:00,56.7,56.1,29.85,ESE,112,3.2,-999.0,98,-99.99,,,0.05,Acu-Link.com,2013-02-11 13:51:00,
2013-02-11 09:06:00,57.2,56.6,29.85,South,180,3.7,-999.0,98,-99.99,,,0.06,Acu-Link.com,2013-02-11 14:06:00,
2013-02-11 09:21:00,57.7,57.1,29.85,West,270,4.2,-999.0,98,-99.99,,,0.06,Acu-Link.com,2013-02-11 14:21:00,
2013-02-11 09:36:00,58.1,57.5,29.85,NNE,22,4.7,-999.0,98,-99.99,,,0.06,Acu-Link.com,2013-02-11 14:36:00,
2013-02-11 09:52:00,58.5,57.9,29.85,South,180,3.2,-999.0,98,-99.99,,,0.06,Acu-Link.com,2013-02-11 14:52:00,
2013-02-11 10:07:00,58.8,58.2,29.86,WNW,292,2.2,-999.0,98,-99.99,,,0.06,Acu-Link.com,2013-02-11 15:07:00,
2013-02-11 10:22:00,58.8,58.2,29.86,West,270,2.7,-999.0,98,-99.99,,,0.06,Acu-Link.com,2013-02-11 15:22:00,
2013-02-11 10:37:00,58.8,58.2,29.86,ESE,112,3.7,-999.0,98,-99.99,,,0.06,Acu-Link.com,2013-02-11 15:37:00,
2013-02-11 10:53:00,58.8,58.2,29.85,NW,315,4.2,-999.0,98,-99.99,,,0.06,Acu-Link.com,2013-02-11 15:53:00,
2013-02-11 11:08:00,58.8,58.2,29.84,South,180,0.0,-999.0,98,-99.99,,,0.06,Acu-Link.com,2013-02-11 16:08:00,
2013-02-11 11:23:00,58.8,58.2,29.83,SW,225,2.2,-999.0,98,-99.99,,,0.06,Acu-Link.com,2013-02-11 16:23:00,
2013-02-11 11:38:00,59.2,58.6,29.83,NW,315,3.2,-999.0,98,-99.99,,,0.06,Acu-Link.com,2013-02-11 16:38:00,
2013-02-11 11:53:00,59.4,58.8,29.82,WSW,247,4.7,-999.0,98,-99.99,,,0.06,Acu-Link.com,2013-02-11 16:53:00,
2013-02-11 12:08:00,59.5,58.9,29.81,North,0,3.2,-999.0,98,-99.99,,,0.07,Acu-Link.com,2013-02-11 17:08:00,
2013-02-11 12:23:00,59.9,59.3,29.81,NW,315,4.2,-999.0,98,-99.99,,,0.07,Acu-Link.com,2013-02-11 17:23:00,
2013-02-11 12:39:00,60.3,59.7,29.80,ESE,112,1.1,-999.0,98,-99.99,,,0.07,Acu-Link.com,2013-02-11 17:39:00,
2013-02-11 12:54:00,60.4,59.8,29.80,West,270,2.2,-999.0,98,-99.99,,,0.07,Acu-Link.com,2013-02-11 17:54:00,
2013-02-11 13:09:00,60.6,60.0,29.79,WSW,247,4.7,-999.0,98,-99.99,,,0.07,Acu-Link.com,2013-02-11 18:09:00,
2013-02-11 13:24:00,60.6,60.0,29.79,West,270,4.7,-999.0,98,-99.99,,,0.07,Acu-Link.com,2013-02-11 18:24:00,
2013-02-11 13:40:00,60.8,60.2,29.79,SE,135,3.2,-999.0,98,-99.99,,,0.07,Acu-Link.com,2013-02-11 18:40:00,
2013-02-11 13:55:00,60.6,60.0,29.77,SE,135,1.1,-999.0,98,-99.99,,,0.07,Acu-Link.com,2013-02-11 18:55:00,
2013-02-11 14:10:00,60.6,60.0,29.76,South,180,4.2,-999.0,98,-99.99,,,0.07,Acu-Link.com,2013-02-11 19:10:00,
2013-02-11 14:25:00,60.6,60.0,29.75,NW,315,3.2,-999.0,98,-99.99,,,0.07,Acu-Link.com,2013-02-11 19:25:00,
2013-02-11 14:41:00,61.0,60.4,29.76,WSW,247,2.7,-999.0,98,-99.99,,,0.07,Acu-Link.com,2013-02-11 19:41:00,
2013-02-11 14:56:00,63.0,62.4,29.75,WNW,292,4.7,-999.0,98,-99.99,,,0.07,Acu-Link.com,2013-02-11 19:56:00,
2013-02-11 15:11:00,61.5,60.9,29.76,NE,45,6.8,-999.0,98,-99.99,,,0.07,Acu-Link.com,2013-02-11 20:11:00,
2013-02-11 15:27:00,61.7,61.1,29.76,NW,315,4.7,-999.0,98,-99.99,,,0.07,Acu-Link.com,2013-02-11 20:27:00,
2013-02-11 15:42:00,61.7,61.1,29.74,ESE,112,3.2,-999.0,98,-99.99,,,0.07,Acu-Link.com,2013-02-11 20:42:00,
2013-02-11 15:57:00,61.9,61.3,29.73,NNE,22,2.7,-999.0,98,-99.99,,,0.07,Acu-Link.com,2013-02-11 20:57:00,
2013-02-11 16:13:00,62.1,61.5,29.72,WSW,247,2.7,-999.0,98,-99.99,,,0.07,Acu-Link.com,2013-02-11 21:13:00,
2013-02-11 16:28:00,62.2,61.6,29.72,NW,315,2.7,-999.0,98,-99.99,,,0.07,Acu-Link.com,2013-02-11 21:28:00,
2013-02-11 16:43:00,62.2,61.6,29.72,SSW,202,1.7,-999.0,98,-99.99,,,0.07,Acu-Link.com,2013-02-11 21:43:00,
2013-02-11 16:59:00,62.4,61.8,29.73,SSE,157,4.2,-999.0,98,-99.99,,,0.07,Acu-Link.com,2013-02-11 21:59:00,
2013-02-11 17:14:00,62.4,61.8,29.73,West,270,4.2,-999.0,98,-99.99,,,0.07,Acu-Link.com,2013-02-11 22:14:00,
2013-02-11 17:29:00,62.4,61.8,29.73,West,270,5.3,-999.0,98,-99.99,,,0.07,Acu-Link.com,2013-02-11 22:29:00,
2013-02-11 17:44:00,62.2,61.6,29.73,NNW,337,3.7,-999.0,98,-99.99,,,0.07,Acu-Link.com,2013-02-11 22:44:00,
2013-02-11 18:00:00,62.1,61.5,29.73,NW,315,1.7,-999.0,98,-99.99,,,0.07,Acu-Link.com,2013-02-11 23:00:00,
2013-02-11 18:15:00,62.1,61.5,29.74,WNW,292,3.7,-999.0,98,-99.99,,,0.07,Acu-Link.com,2013-02-11 23:15:00,
2013-02-11 18:30:00,61.9,61.3,29.74,NNW,337,2.7,-999.0,98,-99.99,,,0.07,Acu-Link.com,2013-02-11 23:30:00,
2013-02-11 18:46:00,61.5,60.9,29.74,West,270,1.1,-999.0,98,-99.99,,,0.07,Acu-Link.com,2013-02-11 23:46:00,
2013-02-11 19:01:00,61.5,60.9,29.74,NW,315,3.2,-999.0,98,-99.99,,,0.07,Acu-Link.com,2013-02-12 00:01:00,
2013-02-11 19:16:00,61.5,60.9,29.74,NW,315,3.2,-999.0,98,-99.99,,,0.07,Acu-Link.com,2013-02-12 00:16:00,
2013-02-11 19:32:00,61.5,60.9,29.75,NNW,337,2.7,-999.0,98,-99.99,,,0.07,Acu-Link.com,2013-02-12 00:32:00,
2013-02-11 19:47:00,61.5,60.9,29.76,WSW,247,1.7,-999.0,98,-99.99,,,0.07,Acu-Link.com,2013-02-12 00:47:00,
2013-02-11 20:02:00,61.0,60.4,29.76,SSW,202,3.7,-999.0,98,-99.99,,,0.07,Acu-Link.com,2013-02-12 01:02:00,
2013-02-11 20:17:00,61.0,60.4,29.75,West,270,4.7,-999.0,98,-99.99,,,0.07,Acu-Link.com,2013-02-12 01:17:00,
2013-02-11 20:33:00,60.8,60.2,29.74,NW,315,2.2,-999.0,98,-99.99,,,0.07,Acu-Link.com,2013-02-12 01:33:00,
2013-02-11 20:48:00,60.3,59.7,29.75,West,270,3.2,-999.0,98,-99.99,,,0.07,Acu-Link.com,2013-02-12 01:48:00,
2013-02-11 21:03:00,60.1,59.5,29.75,ENE,67,2.7,-999.0,98,-99.99,,,0.07,Acu-Link.com,2013-02-12 02:03:00,
2013-02-11 21:18:00,59.7,59.1,29.75,NE,45,1.7,-999.0,98,-99.99,,,0.07,Acu-Link.com,2013-02-12 02:18:00,
2013-02-11 21:33:00,59.5,58.9,29.75,NW,315,2.2,-999.0,98,-99.99,,,0.07,Acu-Link.com,2013-02-12 02:33:00,
2013-02-11 21:49:00,59.0,58.4,29.74,West,270,2.7,-999.0,98,-99.99,,,0.07,Acu-Link.com,2013-02-12 02:49:00,
2013-02-11 22:04:00,58.8,58.2,29.74,West,270,3.7,-999.0,98,-99.99,,,0.07,Acu-Link.com,2013-02-12 03:04:00,
2013-02-11 22:19:00,58.3,57.7,29.74,WNW,292,0.0,-999.0,98,-99.99,,,0.07,Acu-Link.com,2013-02-12 03:19:00,
2013-02-11 22:35:00,57.9,57.3,29.74,SSW,202,2.2,-999.0,98,-99.99,,,0.07,Acu-Link.com,2013-02-12 03:35:00,
2013-02-11 22:50:00,57.7,57.1,29.74,WNW,292,4.2,-999.0,98,-99.99,,,0.07,Acu-Link.com,2013-02-12 03:50:00,
2013-02-11 23:05:00,57.6,57.0,29.74,SE,135,3.7,-999.0,98,-99.99,,,0.07,Acu-Link.com,2013-02-12 04:05:00,
2013-02-11 23:20:00,57.4,56.8,29.74,ENE,67,0.0,-999.0,98,-99.99,,,0.07,Acu-Link.com,2013-02-12 04:20:00,
2013-02-11 23:36:00,57.0,56.4,29.73,WSW,247,1.7,-999.0,98,-99.99,,,0.07,Acu-Link.com,2013-02-12 04:36:00,
2013-02-11 23:51:00,56.8,56.2,29.74,WSW,247,3.2,-999.0,98,-99.99,,,0.07,Acu-Link.com,2013-02-12 04:51:00,